Wind_Speed
2 3 4 7 7 2 14 13 15 15 13 8 11 6 8 11 5 8 20 21 20 20 22 22 20 21 21 20 20 19 17 16 15 14 13 13 12 10 9 8 8 7 7 7 7 7 6 5 4
4 5 6 7 4 2 12 17 9 16 18 5 8 11 6 10 4 17 24 23 20 20 22 21 20 20 20 19 19 17 15 14 13 12 11 11 10 8 7 6 5 4 4 5 5 5 5 3 4
10 9 8 8 5 11 10 11 13 16 12 6 19 11 6 9 8 11 17 22 21 21 21 21 19 19 18 18 17 16 14 13 12 11 10 9 8 8 7 5 3 2 2 3 4 4 4 5 5
21 12 7 7 17 11 11 9 15 17 11 3 5 13 9 4 6 9 17 22 21 22 21 20 19 17 17 16 15 15 14 13 12 11 9 8 7 7 6 5 3 1 1 2 5 3 5 8 8
27 16 12 6 14 14 19 11 0 8 19 14 14 21 15 13 3 8 12 20 21 22 21 20 18 17 15 14 13 13 12 11 10 9 8 8 7 7 7 6 5 3 3 3 3 5 6 8 7
17 14 5 14 10 18 12 13 8 16 12 12 12 12 12 9 5 5 8 14 22 21 21 19 18 17 15 13 11 9 8 7 7 8 9 10 8 10 12 10 8 6 5 5 4 5 6 6 6
13 13 6 5 9 12 6 9 2 7 3 13 13 7 7 8 13 23 8 4 19 19 19 19 16 15 14 12 10 7 4 3 3 7 10 12 11 10 13 12 11 9 8 7 6 5 6 4 5
7 12 11 9 8 10 10 5 12 6 6 4 6 5 8 12 27 25 20 12 7 12 19 17 16 14 11 10 7 6 4 2 1 3 9 10 13 11 11 13 11 12 11 9 7 6 5 4 4
9 10 8 11 12 11 10 3 1 5 11 4 8 3 6 11 23 24 21 20 15 9 18 17 16 14 12 9 6 5 4 2 3 7 8 6 13 8 8 10 10 11 12 10 9 6 5 4 4
5 1 3 10 8 10 2 2 7 5 6 4 6 3 3 4 9 19 24 21 12 13 16 16 15 14 11 9 7 6 4 2 4 7 8 2 8 4 5 7 7 9 10 11 10 8 4 5 2
3 7 4 4 6 9 3 8 7 9 11 12 9 8 3 12 10 15 19 18 16 15 16 16 16 14 12 10 8 6 6 1 2 6 8 3 3 4 3 6 5 6 10 6 8 8 4 4 2
4 6 3 4 4 4 4 3 11 9 11 10 1 12 7 17 19 11 10 11 18 14 15 20 19 18 13 12 9 7 5 1 1 2 4 3 1 2 4 6 7 7 8 9 10 9 3 4 2
4 4 1 3 2 4 1 6 6 11 14 7 3 10 6 21 16 15 14 16 14 11 13 15 19 18 15 13 9 7 5 3 1 4 2 4 2 4 5 6 8 8 8 7 10 5 1 4 5
0 1 5 7 3 1 3 3 4 6 7 8 6 8 6 11 27 20 20 18 21 16 14 12 12 15 14 9 9 6 4 2 3 2 1 3 6 4 6 9 8 6 8 7 4 2 1 2 7
9 6 6 5 6 6 6 6 10 10 2 7 3 13 11 12 15 16 14 18 24 17 13 11 13 12 11 9 6 7 5 4 5 4 3 1 4 2 3 2 3 6 9 6 5 4 3 1 2
9 9 12 10 7 7 8 12 10 10 11 17 11 10 12 22 14 15 22 16 24 21 15 22 13 15 11 8 7 5 7 7 5 7 4 5 4 4 5 6 9 8 7 6 3 4 2 2 3
14 17 14 14 6 9 9 8 8 1 7 4 14 13 20 17 14 14 16 10 13 27 15 17 15 17 14 10 8 7 9 7 7 7 7 5 5 5 5 5 7 8 8 6 4 5 2 1 1
11 5 5 8 10 12 11 5 2 6 2 6 13 19 17 14 16 17 11 3 13 19 12 10 16 13 11 9 7 8 7 8 8 8 10 7 7 7 7 5 7 9 8 6 5 7 3 3 3
11 4 5 14 6 8 6 5 7 1 5 6 12 16 16 21 21 13 5 3 10 16 9 7 13 11 6 5 6 6 4 5 7 9 8 8 12 11 13 8 6 9 10 8 6 6 3 6 5
19 13 17 8 11 7 5 8 2 0 5 4 11 13 13 10 2 5 7 6 3 11 14 11 12 7 6 6 8 5 2 2 4 7 10 10 12 15 16 11 11 12 12 10 10 9 5 5 7
10 13 17 13 9 7 11 10 13 7 4 6 13 13 7 6 11 11 8 6 13 10 9 10 10 7 6 6 6 5 5 5 0 6 6 7 7 6 13 7 12 13 13 11 12 10 8 6 7
13 15 14 9 5 17 21 11 15 12 10 9 10 9 9 12 13 13 10 12 14 8 9 9 8 7 6 6 7 5 5 3 6 7 7 6 7 8 1 4 12 14 10 13 14 10 10 7 10
17 13 9 11 16 17 12 13 7 11 14 12 9 10 4 11 14 10 12 9 13 13 13 11 9 7 7 8 8 4 4 3 2 4 6 8 5 4 3 1 5 13 11 11 14 12 9 8 6
18 16 15 11 15 16 10 14 6 16 15 18 10 9 3 3 8 6 10 8 17 19 18 16 14 12 12 15 14 12 9 10 7 6 7 5 4 4 1 1 2 6 9 10 13 10 8 7 4
12 16 11 9 8 1 10 10 10 16 7 13 13 12 9 7 5 6 4 10 15 15 15 14 13 11 11 12 12 10 9 10 9 9 9 7 7 6 3 1 2 4 7 10 12 11 8 8 7
18 17 16 5 3 4 8 8 12 13 13 15 18 17 12 11 8 10 7 6 13 13 15 13 11 10 10 10 8 6 8 9 7 6 8 8 7 8 7 4 1 4 5 7 9 11 11 10 9
23 20 21 19 3 4 3 8 16 17 14 13 23 20 17 17 12 8 10 7 10 5 7 8 11 9 9 5 8 3 5 3 3 8 8 7 6 6 5 5 3 1 2 4 7 8 10 10 9
19 18 3 5 3 1 2 6 19 9 16 19 23 20 19 19 14 11 11 11 12 8 5 5 5 1 15 11 8 5 3 3 5 8 9 8 8 6 4 1 2 1 1 4 5 7 9 11 12
23 23 14 15 9 10 4 3 13 14 21 22 27 22 19 24 17 13 13 10 6 7 8 5 6 1 6 10 9 6 8 8 7 6 8 10 10 9 6 6 5 5 4 4 5 6 9 10 10
24 26 27 27 15 9 11 8 8 24 24 16 15 28 18 23 18 20 15 11 18 21 8 8 6 5 4 6 7 10 14 14 10 9 10 11 11 12 11 9 9 9 8 9 8 8 9 11 10
Wind_Direction
136 139 108 70 51 75 138 128 138 84 81 53 91 144 130 186 170 152 142 137 146 147 148 151 151 147 147 147 147 145 143 145 148 146 144 140 138 136 133 129 125 113 97 92 89 84 81 79 91
115 192 96 81 94 23 102 122 104 106 90 53 71 95 71 123 118 137 137 144 150 148 150 153 155 151 151 151 152 152 152 155 161 158 155 153 153 151 147 140 129 114 86 77 70 69 66 47 62
82 93 62 72 247 137 91 106 111 113 119 118 79 65 66 114 116 123 133 146 156 152 153 154 156 156 155 156 159 160 164 165 169 173 173 171 173 174 173 170 154 128 77 60 53 31 30 9 345
48 98 102 66 113 98 91 65 103 105 113 169 358 79 81 65 155 138 138 156 159 157 154 154 156 157 159 160 163 168 174 177 180 185 190 196 194 204 200 198 202 213 344 18 27 5 32 13 11
34 110 84 79 119 125 105 84 300 73 103 83 90 119 120 164 291 158 145 162 160 161 157 157 158 158 158 159 164 173 184 187 191 202 213 222 220 233 240 239 238 248 292 330 357 348 342 351 357
359 359 60 89 92 131 74 102 143 91 124 115 75 113 132 177 233 150 181 122 159 165 160 162 161 163 160 162 167 167 183 192 204 223 237 244 257 262 255 254 258 262 282 304 328 330 338 352 2
343 28 54 234 131 124 102 172 69 108 92 103 23 48 129 176 149 174 216 132 161 167 168 167 169 165 162 165 166 158 150 183 229 241 234 247 247 268 251 253 258 262 269 291 302 305 330 358 5
266 353 79 102 134 123 129 86 104 129 64 140 105 35 69 135 163 185 206 200 201 192 183 175 176 173 170 163 157 137 123 148 258 314 271 256 242 258 260 239 254 261 261 268 285 297 307 316 358
347 330 99 71 93 114 131 127 137 78 128 46 112 84 38 137 174 191 204 214 219 209 190 182 186 182 177 170 158 151 167 139 18 355 344 250 229 257 242 222 244 255 258 257 269 273 285 324 357
249 2 64 82 84 98 179 295 242 145 347 287 118 187 32 140 186 198 201 215 208 195 191 194 196 190 184 173 161 164 174 172 337 343 357 43 186 222 239 225 234 253 257 260 258 259 293 358 18
38 65 8 140 81 86 142 275 133 325 345 16 287 218 210 171 202 207 218 225 212 212 200 204 205 200 193 186 172 169 194 275 318 356 10 40 207 247 234 207 219 238 246 254 229 249 263 174 290
128 77 356 66 48 28 14 139 34 10 359 15 196 219 215 193 205 223 229 219 226 214 219 200 201 204 198 182 181 175 191 188 247 300 355 38 35 227 253 226 241 253 244 241 226 243 223 185 215
287 177 274 276 355 121 106 32 40 35 349 348 243 225 218 189 224 239 229 222 209 217 225 208 207 207 201 187 185 202 187 187 189 275 345 30 1 284 229 232 242 247 245 227 220 226 25 31 310
103 233 274 215 348 278 116 152 250 352 351 307 257 222 197 191 203 234 201 223 220 229 225 221 214 207 206 182 190 210 235 227 245 258 239 4 343 312 251 235 244 236 223 233 236 173 263 355 13
227 273 254 219 238 168 193 249 246 290 56 258 255 197 216 243 239 225 190 238 184 225 230 232 203 252 224 203 202 211 251 238 264 279 261 313 351 48 166 191 163 182 217 206 224 221 58 332 314
246 249 264 260 204 236 272 254 263 327 254 212 206 271 275 288 257 269 236 301 234 226 220 212 238 245 223 222 213 233 264 259 273 291 271 296 300 319 260 267 238 232 247 256 276 105 129 318 29
250 243 249 205 220 249 207 293 322 263 307 327 313 281 293 292 270 270 285 335 251 190 192 221 225 224 227 225 222 240 259 275 279 283 283 267 252 255 267 295 199 200 211 207 182 173 251 280 138
278 269 247 200 244 240 245 223 335 40 102 316 304 291 281 293 289 278 273 248 193 209 145 183 228 208 206 228 220 237 262 277 282 283 275 261 252 266 251 260 215 213 218 214 221 221 236 240 268
228 217 247 225 176 241 226 142 108 125 21 245 270 268 287 298 290 259 226 192 215 221 180 173 193 204 180 194 203 219 230 280 316 303 300 279 296 267 251 254 231 211 207 217 231 209 220 251 291
248 247 263 210 163 189 239 143 116 242 142 300 276 295 312 316 103 137 156 172 211 155 170 172 182 172 188 190 214 215 215 346 28 2 305 281 297 252 249 249 226 207 212 214 224 226 233 278 317
241 252 268 145 205 234 190 167 170 177 237 258 276 324 327 82 87 111 141 153 161 158 138 148 145 164 188 206 204 201 196 175 232 344 10 6 339 223 232 250 218 205 214 210 221 238 245 252 230
264 253 268 276 248 242 226 189 210 239 250 260 284 320 33 75 104 88 131 113 143 150 135 151 143 162 171 194 185 205 221 187 263 342 2 2 359 39 40 228 208 208 214 216 219 228 251 255 259
255 282 298 271 289 280 251 210 208 237 237 215 246 293 28 79 98 114 96 93 116 121 109 103 114 126 139 159 146 146 110 120 43 19 27 15 3 24 36 265 204 208 221 220 225 225 236 246 254
246 272 262 261 271 285 33 20 347 283 270 211 212 260 187 96 91 83 42 100 113 103 105 105 105 113 116 112 110 105 110 104 86 62 60 41 22 21 76 323 179 212 211 208 205 213 215 228 258
242 262 277 295 268 150 21 10 324 337 161 177 182 213 190 166 144 186 156 125 124 124 122 115 109 105 103 103 97 94 93 85 80 62 58 55 39 35 38 162 190 211 215 215 219 221 219 234 247
247 238 245 239 120 183 298 136 214 300 191 173 174 203 191 183 203 183 152 112 103 104 111 107 93 91 97 95 88 84 73 65 67 38 24 40 57 52 47 52 81 224 226 222 224 228 225 231 241
244 271 249 246 38 65 26 317 297 272 233 192 169 201 201 201 204 178 165 158 147 168 138 120 100 101 111 79 72 44 79 60 353 356 359 2 23 47 35 60 74 130 218 243 237 238 242 243 243
240 243 263 84 92 124 7 289 293 211 202 173 173 204 185 194 198 206 189 195 190 170 117 109 113 14 70 82 67 28 24 0 353 312 318 320 314 305 298 344 28 26 261 246 252 247 243 247 253
221 235 210 231 193 207 136 341 288 252 209 183 183 202 189 190 205 206 195 193 160 203 213 194 155 78 59 53 37 20 12 2 339 317 292 283 288 294 290 273 275 278 296 274 264 260 257 254 255
221 231 231 232 221 194 111 259 267 173 186 230 196 179 198 191 206 205 216 198 190 205 170 192 172 167 104 70 49 35 29 22 5 332 306 292 279 274 271 261 261 277 285 269 257 256 260 259 250
Height
3168 3170 3169 3169 3172 3166 3164 3171 3171 3175 3172 3171 3173 3174 3174 3175 3177 3179 3179 3180 3184 3186 3188 3191 3194 3195 3197 3198 3200 3202 3204 3206 3208 3209 3211 3212 3212 3213 3214 3215 3215 3215 3216 3216 3216 3216 3216 3216 3216
3168 3171 3170 3170 3171 3166 3161 3169 3171 3175 3173 3173 3175 3174 3174 3175 3175 3175 3177 3180 3184 3188 3190 3192 3194 3196 3197 3199 3201 3203 3204 3206 3208 3210 3211 3212 3212 3213 3214 3216 3216 3216 3216 3216 3217 3217 3217 3217 3217
3169 3170 3171 3169 3171 3168 3171 3172 3175 3175 3176 3174 3174 3175 3176 3173 3176 3177 3180 3181 3184 3187 3190 3193 3195 3197 3199 3200 3202 3203 3205 3206 3208 3210 3211 3212 3213 3213 3214 3215 3216 3216 3216 3216 3217 3217 3218 3217 3215
3172 3171 3170 3173 3172 3172 3174 3174 3174 3174 3177 3176 3173 3175 3179 3177 3176 3179 3181 3184 3186 3188 3191 3193 3196 3198 3200 3201 3203 3204 3205 3206 3208 3210 3211 3212 3213 3213 3214 3214 3215 3215 3216 3216 3217 3216 3216 3215 3214
3173 3172 3169 3172 3175 3173 3176 3177 3174 3175 3175 3176 3177 3180 3182 3180 3179 3180 3183 3185 3188 3190 3192 3194 3197 3199 3201 3202 3203 3204 3206 3207 3208 3210 3212 3212 3213 3214 3214 3214 3215 3215 3215 3216 3217 3217 3216 3215 3215
3178 3178 3176 3175 3177 3174 3177 3179 3176 3176 3178 3179 3180 3181 3180 3182 3180 3179 3180 3188 3191 3191 3193 3195 3197 3199 3200 3202 3203 3205 3206 3207 3208 3209 3210 3211 3212 3212 3212 3213 3214 3214 3215 3215 3216 3217 3216 3216 3215
3181 3179 3178 3176 3179 3179 3178 3177 3174 3179 3178 3176 3180 3181 3182 3181 3183 3180 3181 3187 3191 3193 3194 3196 3198 3199 3201 3202 3203 3205 3206 3207 3208 3207 3208 3208 3209 3210 3209 3211 3212 3213 3214 3215 3216 3216 3216 3217 3216
3182 3181 3182 3181 3179 3179 3180 3179 3179 3179 3179 3180 3180 3182 3182 3182 3181 3182 3185 3187 3192 3193 3194 3196 3198 3200 3201 3202 3203 3205 3206 3206 3205 3205 3206 3206 3206 3207 3208 3209 3211 3211 3212 3214 3215 3216 3216 3215 3216
3183 3183 3183 3180 3180 3181 3180 3180 3180 3181 3181 3180 3179 3181 3181 3180 3181 3183 3184 3187 3191 3193 3194 3194 3197 3199 3201 3202 3204 3205 3204 3205 3205 3204 3204 3202 3203 3205 3205 3207 3208 3209 3210 3212 3214 3215 3215 3215 3215
3182 3183 3182 3181 3182 3182 3180 3180 3180 3182 3183 3181 3179 3180 3180 3179 3180 3182 3182 3184 3189 3192 3192 3194 3196 3198 3200 3202 3203 3204 3204 3205 3205 3204 3203 3202 3204 3205 3204 3206 3206 3208 3210 3211 3212 3213 3215 3215 3215
3179 3181 3180 3182 3183 3182 3182 3179 3179 3181 3182 3179 3175 3177 3178 3180 3178 3179 3180 3182 3185 3188 3191 3193 3195 3197 3199 3202 3203 3204 3204 3204 3204 3204 3203 3202 3203 3203 3204 3205 3206 3206 3207 3209 3210 3211 3213 3214 3215
3178 3181 3181 3182 3183 3182 3182 3181 3180 3180 3181 3178 3176 3176 3178 3179 3179 3179 3181 3182 3183 3187 3187 3190 3193 3196 3198 3200 3203 3204 3204 3204 3204 3204 3204 3203 3203 3204 3203 3204 3205 3205 3206 3208 3209 3209 3211 3213 3214
3178 3180 3181 3181 3182 3182 3183 3181 3179 3180 3179 3176 3173 3173 3175 3178 3181 3184 3183 3183 3181 3183 3187 3187 3189 3194 3196 3199 3202 3203 3203 3204 3203 3203 3203 3203 3203 3203 3203 3203 3204 3205 3206 3207 3209 3210 3211 3213 3212
3178 3180 3181 3181 3181 3182 3183 3183 3179 3179 3177 3173 3172 3179 3179 3176 3169 3179 3181 3181 3182 3182 3184 3187 3188 3191 3195 3197 3201 3202 3202 3203 3203 3204 3203 3203 3203 3202 3202 3202 3202 3204 3206 3207 3209 3210 3211 3210 3210
3178 3179 3180 3180 3180 3182 3181 3181 3179 3178 3175 3171 3176 3178 3178 3179 3173 3168 3174 3179 3167 3179 3183 3185 3189 3190 3193 3197 3200 3201 3201 3202 3202 3203 3202 3203 3203 3203 3202 3200 3202 3203 3206 3208 3209 3210 3210 3212 3212
3178 3178 3177 3178 3180 3181 3181 3179 3179 3176 3168 3163 3173 3177 3180 3181 3172 3174 3177 3177 3175 3172 3178 3181 3187 3190 3192 3196 3198 3199 3200 3202 3201 3202 3202 3202 3203 3202 3202 3200 3201 3204 3207 3208 3210 3209 3207 3211 3210
3176 3175 3175 3177 3178 3178 3179 3179 3178 3175 3169 3162 3166 3174 3175 3172 3171 3174 3175 3170 3168 3173 3175 3182 3184 3188 3192 3195 3197 3198 3199 3200 3199 3200 3200 3200 3200 3201 3200 3199 3199 3203 3207 3207 3208 3210 3209 3209 3208
3174 3173 3174 3175 3177 3175 3172 3175 3175 3175 3175 3172 3170 3168 3168 3170 3171 3170 3171 3170 3170 3165 3178 3182 3186 3189 3192 3194 3195 3197 3196 3197 3198 3198 3198 3199 3198 3199 3198 3198 3200 3202 3205 3206 3208 3208 3207 3207 3206
3173 3173 3172 3173 3176 3175 3175 3173 3174 3174 3173 3174 3172 3168 3170 3169 3167 3167 3169 3170 3173 3175 3179 3183 3186 3190 3190 3192 3194 3195 3198 3198 3197 3195 3195 3196 3195 3194 3197 3196 3198 3199 3202 3205 3207 3207 3207 3206 3207
3171 3171 3170 3171 3172 3175 3175 3175 3176 3176 3174 3172 3173 3174 3172 3167 3165 3166 3169 3171 3171 3175 3179 3180 3183 3185 3188 3192 3193 3194 3195 3196 3196 3194 3194 3193 3192 3192 3193 3194 3196 3199 3201 3204 3205 3206 3206 3207 3207
3170 3170 3169 3171 3173 3172 3172 3174 3175 3175 3173 3171 3172 3174 3171 3169 3168 3168 3169 3170 3173 3177 3178 3181 3183 3186 3186 3190 3191 3193 3194 3194 3194 3193 3192 3190 3188 3188 3190 3191 3194 3197 3200 3201 3203 3205 3206 3206 3206
3168 3168 3168 3169 3169 3169 3169 3172 3172 3172 3171 3170 3171 3175 3174 3171 3171 3172 3173 3175 3178 3180 3180 3181 3182 3185 3186 3189 3191 3192 3192 3194 3194 3193 3191 3190 3188 3187 3188 3189 3191 3195 3199 3200 3203 3204 3205 3206 3205
3165 3166 3166 3167 3166 3167 3166 3166 3167 3169 3169 3171 3170 3173 3175 3175 3174 3174 3176 3177 3178 3179 3179 3180 3182 3184 3185 3188 3190 3192 3192 3192 3193 3192 3190 3190 3189 3188 3188 3189 3192 3194 3197 3198 3201 3203 3205 3206 3206
3163 3164 3165 3164 3165 3165 3167 3166 3168 3169 3168 3169 3171 3172 3173 3174 3175 3176 3175 3177 3178 3178 3181 3183 3184 3186 3188 3188 3189 3191 3192 3191 3192 3190 3190 3190 3190 3189 3188 3189 3191 3193 3194 3197 3199 3201 3203 3203 3205
3161 3161 3162 3164 3163 3167 3164 3167 3170 3172 3168 3172 3173 3173 3175 3174 3175 3178 3179 3179 3179 3181 3182 3185 3189 3192 3194 3194 3193 3192 3190 3189 3191 3191 3192 3191 3190 3190 3189 3189 3191 3192 3194 3196 3198 3201 3202 3203 3204
3158 3160 3160 3163 3163 3165 3163 3165 3170 3171 3166 3167 3170 3172 3175 3177 3179 3180 3181 3182 3181 3182 3185 3190 3194 3195 3192 3194 3196 3195 3191 3190 3191 3191 3191 3192 3190 3189 3188 3188 3190 3191 3193 3194 3196 3197 3199 3201 3201
3153 3155 3155 3157 3159 3161 3167 3164 3162 3162 3165 3166 3169 3171 3175 3176 3179 3179 3180 3183 3183 3183 3188 3193 3194 3191 3190 3193 3192 3196 3194 3188 3190 3191 3190 3190 3191 3190 3190 3188 3189 3190 3190 3191 3193 3195 3197 3197 3199
3149 3153 3154 3154 3161 3166 3170 3164 3154 3156 3160 3164 3168 3171 3174 3176 3177 3179 3181 3183 3185 3185 3188 3192 3191 3187 3186 3186 3192 3195 3195 3190 3188 3188 3187 3186 3188 3189 3189 3189 3188 3189 3188 3189 3189 3190 3193 3194 3195
3146 3148 3150 3153 3153 3156 3166 3164 3153 3158 3157 3161 3165 3170 3173 3176 3178 3180 3182 3185 3187 3186 3188 3189 3190 3191 3189 3191 3192 3194 3192 3187 3186 3186 3185 3184 3184 3184 3186 3186 3187 3187 3186 3186 3186 3187 3188 3190 3191
3138 3141 3144 3144 3146 3151 3156 3159 3154 3155 3161 3164 3167 3168 3174 3176 3178 3180 3183 3186 3184 3177 3184 3184 3190 3194 3193 3192 3193 3192 3188 3184 3183 3183 3183 3182 3182 3182 3182 3183 3183 3183 3183 3183 3184 3184 3184 3186 3187